EW7119 Weather Reports


time (UTC)temp
C
wind
direction
speed
KPH
gust
KPH
rain 1hr
cm
rain 24hr
cm
rain mn
cm
humidity
%
barometer
mb
20260502163108 5 315 3.2 9.7 0.00 1.19 0.00 41 1021.4
20260502161607 5 249 1.6 6.4 0.00 1.19 0.00 42 1021.4
20260502151551 3 316 1.6 6.4 0.00 1.35 0.00 50 1021.2
20260502123045 -3 52 0.0 6.4 0.00 1.35 0.00 78 1021.5
20260502121530 -3 73 1.6 4.8 0.00 1.35 0.00 77 1021.3
20260502114558 -3 89 1.6 6.4 0.00 1.35 0.00 76 1021.3
20260502113101 -3 84 3.2 8.0 0.00 1.35 0.00 76 1021.3
20260502111623 -3 82 3.2 8.0 0.00 1.35 0.00 77 1021.3
20260502110012 -3 88 3.2 8.0 0.00 1.35 0.00 76 1021.2
20260502104559 -3 99 1.6 4.8 0.00 1.35 0.00 78 1021.2
20260502103035 -4 101 0.0 0.0 0.00 1.35 0.00 81 1021.1
20260502101532 -4 101 0.0 0.0 0.00 1.35 0.00 82 1021.0
20260502090120 -3 102 0.0 0.0 0.00 1.35 0.00 84 1020.7
20260502071516 -3 102 0.0 0.0 0.00 1.35 0.00 84 1020.8
20260502070056 -3 102 0.0 0.0 0.00 1.35 0.00 83 1020.8
20260502064517 -3 102 0.0 0.0 0.00 1.35 0.00 84 1020.8
20260502063043 -3 102 0.0 3.2 0.00 1.35 0.00 84 1020.8
20260502061546 -3 102 0.0 0.0 0.00 1.35 0.00 84 1020.7
20260502054546 -2 102 0.0 0.0 0.00 1.35 1.35 85 1020.6
20260502053050 -2 102 0.0 1.6 0.00 1.35 1.35 82 1020.5
20260502051630 -2 102 1.6 6.4 0.00 1.35 1.35 81 1020.5
20260502050044 -2 108 0.0 0.0 0.00 1.35 1.35 80 1020.6
20260502044545 -2 108 0.0 0.0 0.00 1.35 1.35 80 1020.5
20260502043123 -2 108 0.0 0.0 0.00 1.35 1.35 78 1020.3
20260502041610 -1 108 0.0 0.0 0.00 1.35 1.35 77 1020.3
20260502040027 -1 108 0.0 0.0 0.00 1.35 1.35 75 1020.2
20260502034619 -1 108 0.0 0.0 0.00 1.35 1.35 73 1020.0
20260502033114 -1 108 0.0 0.0 0.00 1.35 1.35 72 1019.8
20260502031614 0 108 0.0 0.0 0.00 1.35 1.35 71 1019.6
20260502030112 0 108 1.6 6.4 0.00 1.35 1.35 73 1019.3
20260502024600 0 107 1.6 4.8 0.00 1.35 1.35 72 1019.1
20260502023126 0 100 3.2 6.4 0.00 1.35 1.35 73 1018.8
20260502021553 1 32 1.6 4.8 0.00 1.35 1.35 69 1018.6
20260502020112 1 17 0.0 0.0 0.00 1.35 1.35 60 1018.6
20260502014607 2 28 0.0 8.0 0.00 1.35 1.35 58 1018.2
20260502013028 3 337 1.6 4.8 0.00 1.35 1.35 59 1018.1
20260502011521 3 17 4.8 16.1 0.00 1.35 1.35 55 1017.8
20260502010002 3 329 1.6 6.4 0.00 1.35 1.35 58 1017.5
20260502004513 3 46 1.6 9.7 0.00 1.37 1.35 54 1017.5
20260502003015 3 113 1.6 12.9 0.00 1.37 1.35 58 1017.6
20260502001523 3 67 8.0 14.5 0.00 1.37 1.35 57 1017.7
20260502000100 3 275 3.2 14.5 0.00 1.37 1.35 58 1017.4
20260501234527 5 312 6.4 17.7 0.00 1.40 1.35 57 1017.3
20260501233021 5 350 3.2 14.5 0.00 1.40 1.35 56 1017.1
20260501231539 5 309 6.4 14.5 0.00 1.40 1.35 56 1017.0
20260501230037 3 360 3.2 8.0 0.00 1.40 1.35 62 1017.0
20260501224539 4 341 3.2 9.7 0.00 1.45 1.35 59 1017.0
20260501223037 5 313 0.0 9.7 0.00 1.45 1.35 60 1016.9
20260501221511 5 313 0.0 6.4 0.00 1.45 1.35 67 1017.1
20260501220139 4 302 1.6 6.4 0.00 1.45 1.35 65 1017.4
20260501214545 5 250 0.0 9.7 0.00 1.57 1.35 68 1017.4
20260501213058 4 277 1.6 6.4 0.00 1.57 1.35 70 1017.6
20260501211551 3 295 3.2 9.7 0.00 1.57 1.35 72 1017.8
20260501210118 3 348 1.6 8.0 0.05 1.57 1.35 75 1018.0
20260501204602 3 266 0.0 0.0 0.13 1.65 1.35 69 1017.9
20260501203113 3 266 3.2 11.3 0.23 1.65 1.35 71 1018.1
20260501201607 3 260 3.2 11.3 0.30 1.65 1.35 72 1018.1
20260501200011 3 317 4.8 8.0 0.38 1.60 1.30 74 1018.1
20260501194537 2 311 3.2 9.7 0.36 1.78 1.22 76 1018.1
20260501193048 3 264 3.2 11.3 0.33 1.68 1.12 76 1018.2
20260501191602 3 265 1.6 8.0 0.30 1.60 1.04 76 1018.2
20260501190115 2 272 1.6 9.7 0.25 1.45 0.91 75 1018.3
20260501184603 2 236 0.0 4.8 0.25 1.73 0.86 75 1018.3
20260501183113 1 266 0.0 4.8 0.23 1.65 0.79 80 1018.4
20260501181609 1 273 1.6 4.8 0.20 1.57 0.71 78 1018.5
20260501174559 1 273 1.6 4.8 0.23 1.91 0.61 77 1018.7